Regional Weather Roundup
Issued by NWS Albany, NY

Home | Current Version | Previous Version | Text Only | Print | Product List | Glossary On
Versions: 1 2 3 4 5 6 7 8 9 10 11 12 13 14 15 16 17 18 19 20 21 22 23 24 25 26 27 28 29 30 31 32 33 34 35 36 37 38 39 40 41 42 43 44 45 46 47 48 49 50
000
ASUS41 KALY 010310
RWRALY

NEW YORK STATE HOURLY WEATHER ROUNDUP
NATIONAL WEATHER SERVICE ALBANY NY
1100 PM EDT THU JUL 31 2014

NOTE: "FAIR" INDICATES FEW OR NO CLOUDS BELOW 12,000 FEET WITH NO
SIGNIFICANT WEATHER AND/OR NO OBSTRUCTIONS TO VISIBILITY.

NYZ032-033-038>043-046>054-057>066-NYZ062>081-010400-
EAST


CITY           SKY/WX    TMP DP  RH WIND       PRES   REMARKS
ALBANY         CLEAR     65  62  90 CALM      30.13R
GLENS FALLS    CLEAR     63  61  93 SW3       30.12S
POUGHKEEPSIE   CLEAR     68  63  84 CALM      30.12S
NEWBURGH       CLEAR     68  61  77 CALM      30.15S
MONTGOMERY     CLEAR     63  59  87 CALM      30.13S
WHITE PLAINS   CLEAR     66  63  90 S5        30.14S
ISLIP          PTCLDY    74  67  78 S8        30.14F
NEW YORK CITY  PTCLDY    75  66  73 S8        30.13S
CENTRAL PARK   PTCLDY    75  64  68 S5        30.16S
$$

NYZ005>009-017-018-044>046-055-056-010400-
CENTRAL


CITY           SKY/WX    TMP DP  RH WIND       PRES   REMARKS
FULTON         MOCLDY    62  59  90 SE5       30.10R
SYRACUSE       MOCLDY    63  60  90 E3        30.10S
ROME           MOCLDY    60  59  96 SE3       30.14R
ELMIRA         PTCLDY    58  57  97 CALM      30.12R
BINGHAMTON     CLEAR     65  58  78 SW7       30.15R
MONTICELLO     CLEAR     61  59  94 CALM      30.18S
$$

NYZ026>034-041>043-010400-
NORTH


CITY           SKY/WX    TMP DP  RH WIND       PRES   REMARKS
WATERTOWN      CLEAR     62  53  72 CALM      30.08R
FORT DRUM      NOT AVBL
MASSENA        CLEAR     58  56  93 CALM      30.07R
SARANAC LAKE   CLEAR     50  49  96 CALM      30.12R FOG
PLATTSBURGH    CLEAR     58  58 100 SW3       30.09R FOG
$$

NYZ001>004-010>016-019>021-010400-
WEST


CITY           SKY/WX    TMP DP  RH WIND       PRES   REMARKS
NIAGARA FALLS  PTCLDY    63  56  78 S6        30.07S
BUFFALO          N/A     62  51  67 S7        30.08F
DUNKIRK        CLEAR     58  53  84 CALM      30.09S
JAMESTOWN      CLEAR     57  54  88 S3        30.14R
WELLSVILLE     CLEAR     62  50  64 CALM      30.17S
ROCHESTER      PTCLDY    63  51  65 SW6       30.09S
PENN YAN       CLEAR     64  59  83 SW3       30.12R
$$

             KEY
       WCI = WIND CHILL INDEX
       VSB = VISIBILITY
       HX  = HEAT INDEX
$$


USA.gov is the U.S. government's official web portal to all federal, state and local government web resources and services.